Weather History for KNQI - December, 2012

Change the Weather History Date:

Monday, December 31, 2012

  Actual Average Record
Temperature  
Mean Temperature 72 °F -  
Max Temperature 80 °F 66 °F 82 °F (2011)
Min Temperature 64 °F 45 °F 37 °F (2006)
Cooling Degree Days 7    
Growing Degree Days 22 (Base 50)    
Moisture  
Dew Point 63 °F    
Average Humidity 78    
Maximum Humidity 90    
Minimum Humidity 56    
Precipitation  
Precipitation 0.00 in - - ()
Sea Level Pressure  
Sea Level Pressure 29.99 in    
Wind  
Wind Speed 9 mph (SSE)    
Max Wind Speed 20 mph    
Max Gust Speed 31 mph    
Visibility 10 miles    
Events Rain    
Averages and records for this station are not official NWS values.
T = Trace of Precipitation, MM = Missing Value Source: NWS Daily Summary

Daily Weather History Graph

Daily Weather History Graph

Search for Another Location

Airport or City:

Trip Planner

Search our weather history database for the weather conditions in past years. The results will help you decide how hot, cold, wet, or windy it might be!

Date:

Astronomy

Dec. 31, 2012 Rise Set
Actual Time 7:21 AM CST 5:47 PM CST
Civil Twilight 6:55 AM CST 6:13 PM CST
Nautical Twilight 6:26 AM CST 6:42 PM CST
Astronomical Twilight 5:58 AM CST 7:10 PM CST
Moon 9:00 PM CST (12/31) 9:20 AM CST (12/31)
Length of Visible Light 11h 17m
Length of Day
10h 26m
Waning Gibbous, 90% of the Moon is Illuminated
Dec 31
Waning Gibbous
Jan 4
Last Quarter
Jan 11
New
Jan 18
First Quarter
Jan 26
Full

Hourly Weather History & Observations

Time (CST) Temp. Heat Index Dew Point Humidity Pressure Visibility Wind Dir Wind Speed Gust Speed Precip Events Conditions
12:56 AM 64.0 °F - 57.0 °F 78% 30.10 in 10.0 mi North - - N/A   Overcast
1:56 AM 64.9 °F - 57.0 °F 75% 30.08 in 10.0 mi SE 6.9 mph - N/A   Overcast
2:56 AM 66.0 °F - 57.9 °F 75% 30.07 in 10.0 mi Calm Calm - N/A   Overcast
3:56 AM 66.9 °F - 59.0 °F 76% 30.06 in 10.0 mi SSE 8.1 mph - N/A   Overcast
4:56 AM 66.9 °F - 61.0 °F 81% 30.04 in 10.0 mi SE 6.9 mph - 0.00 in   Overcast
5:42 AM 66.2 °F - 62.6 °F 88% 30.03 in 10.0 mi SSE 10.4 mph - 0.00 in   Overcast
5:56 AM 66.0 °F - 62.1 °F 87% 30.04 in 9.0 mi SSE 8.1 mph - 0.00 in   Overcast
6:32 AM 66.2 °F - 62.6 °F 88% 30.03 in 8.0 mi SSE 10.4 mph - 0.00 in Rain Light Rain
6:48 AM 66.2 °F - 62.6 °F 88% 30.03 in 10.0 mi SSE 11.5 mph - 0.00 in   Overcast
6:56 AM 66.9 °F - 63.0 °F 87% 30.02 in 10.0 mi SSE 10.4 mph - 0.00 in   Overcast
7:56 AM 66.9 °F - 63.0 °F 87% 30.02 in 8.0 mi SSE 6.9 mph - N/A   Overcast
8:41 AM 66.2 °F - 62.6 °F 88% 30.04 in 8.0 mi SSE 6.9 mph - N/A   Overcast
8:56 AM 66.9 °F - 64.0 °F 90% 30.03 in 9.0 mi SSE 6.9 mph - N/A   Overcast
9:17 AM 68.0 °F - 64.4 °F 88% 30.04 in 9.0 mi SSE 8.1 mph - N/A   Overcast
9:45 AM 69.8 °F - 64.4 °F 83% 30.04 in 10.0 mi SSE 9.2 mph - N/A   Overcast
9:56 AM 70.0 °F - 64.9 °F 84% 30.04 in 10.0 mi SSE 12.7 mph - N/A   Overcast
10:27 AM 71.6 °F - 64.4 °F 78% 30.04 in 10.0 mi South 16.1 mph - N/A   Overcast
10:56 AM 73.9 °F - 64.9 °F 73% 30.02 in 10.0 mi SSE 17.3 mph 26.5 mph N/A   Overcast
11:33 AM 75.2 °F - 64.4 °F 69% 30.01 in 10.0 mi South 18.4 mph 27.6 mph N/A   Overcast
11:56 AM 73.9 °F - 64.0 °F 71% 29.98 in 10.0 mi South 16.1 mph - N/A   Overcast
12:56 PM 77.0 °F - 63.0 °F 62% 29.96 in 10.0 mi South 18.4 mph 24.2 mph N/A   Overcast
1:56 PM 80.1 °F 81.5 °F 63.0 °F 56% 29.91 in 10.0 mi South 19.6 mph 31.1 mph N/A   Overcast
2:56 PM 79.0 °F - 63.0 °F 58% 29.89 in 10.0 mi South 16.1 mph 26.5 mph N/A   Overcast
3:56 PM 78.1 °F - 62.1 °F 58% 29.88 in 10.0 mi SSE 19.6 mph 25.3 mph N/A   Overcast
4:56 PM 77.0 °F - 62.1 °F 60% 29.87 in 10.0 mi South 18.4 mph 26.5 mph N/A   Overcast
5:56 PM 75.0 °F - 62.1 °F 64% 29.90 in 10.0 mi South 8.1 mph - N/A   Overcast
6:56 PM 73.0 °F - 63.0 °F 71% 29.91 in 10.0 mi ESE 5.8 mph - N/A   Overcast
7:08 PM 71.6 °F - 62.6 °F 73% 29.93 in 10.0 mi ESE 4.6 mph - 0.00 in Rain Light Rain
7:19 PM 71.6 °F - 64.4 °F 78% 29.94 in 10.0 mi ESE 6.9 mph - 0.00 in   Overcast
7:27 PM 71.6 °F - 64.4 °F 78% 29.93 in 10.0 mi East 6.9 mph - 0.00 in Rain Light Rain
7:56 PM 69.1 °F - 64.9 °F 87% 29.93 in 10.0 mi ESE 5.8 mph - 0.00 in Rain Light Rain
8:56 PM 68.0 °F - 64.9 °F 90% 29.94 in 10.0 mi SE 4.6 mph - 0.00 in Rain Light Rain
9:32 PM 68.0 °F - 64.4 °F 88% 29.95 in 10.0 mi SE 4.6 mph - 0.00 in   Overcast
9:56 PM 68.0 °F - 64.0 °F 87% 29.94 in 10.0 mi ESE 6.9 mph - 0.00 in   Overcast
10:56 PM 68.0 °F - 64.9 °F 90% 29.92 in 10.0 mi SE 9.2 mph - N/A   Overcast
11:56 PM 69.1 °F - 64.9 °F 87% 29.93 in 9.0 mi SSE 8.1 mph - N/A   Mostly Cloudy